Location: Alfortville
(48.8058°N, 2.4204°E)
Time: 12:28:59
(UTC+00:00)

Meteor 1-19 Rocket - Pass Details

Date: 14 December 2023
Orbit: 806 x 928 km, 81.2° (Epoch: 01 March)

Event Time Altitude Azimuth Distance (km) Brightness Sun altitude
Rises 18:41:27 0° 185° (S) 3,514 7.5 -26.4°
Reaches altitude 10° 18:43:53 10° 183° (S) 2,591 6.8 -26.8°
Enters shadow 18:49:32 75° 130° (SE) 957 4.2 -27.7°
